Preview of NWS' New Version of Forecast
This preview is not operational and should not be used for support decisions.

Regional Weather Roundup (RWR)

Issued by National Weather Service (NWS)

                            
000
ASUS43 KLSX 260107
RWRMO 

WEATHER SUMMARY FOR MISSOURI
NATIONAL WEATHER SERVICE SPRINGFIELD MO
800 PM CDT SAT MAY 25 2019

NOTE: "FAIR" INDICATES FEW OR NO CLOUDS BELOW 12,000 FEET WITH NO
       SIGNIFICANT WEATHER AND/OR OBSTRUCTIONS TO VISIBILITY.
       CURRENT SKY AND/OR WEATHER CONDITIONS ARE NOT AVAILABLE FOR
       CHILLICOTHE AND FARMINGTON.

MOZ001>031-035>038-043-044-053-054-260200-
...NORTHERN AND WESTERN MISSOURI...
  
CITY           SKY/WX    TMP DP  RH WIND       PRES   REMARKS
KANSAS CTY INT CLOUDY    76  69  79 SW13      29.94S                  
KANSAS C DTWN  CLOUDY    80  68  66 SW9       29.93R                  
LEE'S SUMMIT   CLOUDY    79  67  66 SW12G21   29.95S                  
ST JOSEPH      CLOUDY    74  70  87 SW3       29.94R                  
CHILLICOTHE      N/A     78  71  79 SE3       29.93S                  
KIRKSVILLE     CLOUDY    76  71  85 CALM      29.95S                  
     
$$
MOZ066>068-077>081-088>096-101>105-260200-
...SOUTHWEST MISSOURI...
  
CITY           SKY/WX    TMP DP  RH WIND       PRES   REMARKS
SPRINGFIELD    CLOUDY    79  66  64 S8        30.00S                  
JOPLIN         PTCLDY    76  68  76 S8        30.00R                  
BRANSON        MOCLDY    79  66  65 S12       30.03F                  
               
$$
MOZ032>034-039>042-045>050-055>058-069>072-260200-
...CENTRAL MISSOURI...  
  
CITY           SKY/WX    TMP DP  RH WIND       PRES   REMARKS
COLUMBIA       CLEAR     78  68  71 S7        29.96F                  
ROLLA          CLEAR     78  68  71 S6        30.00F                  
SEDALIA        CLOUDY    75  68  78 S7        29.96F                  
WHITEMAN AFB   PTCLDY    77  70  78 SW7       29.92F                  
WARRENSBURG    CLOUDY    79  66  65 S7        29.95S                  
OSAGE BEACH    CLEAR     81  69  67 S5        29.99F                  
               
$$
MOZ051-052-059>065-260200-
...EAST CENTRAL MISSOURI...
  
CITY           SKY/WX    TMP DP  RH WIND       PRES   REMARKS
ST LOUIS INTL  PTCLDY    86  66  51 S7        29.97F                  
SPIRIT OF STL  PTCLDY    84  71  65 S3        29.96F                  
ST CHARLES       N/A    N/A N/A N/A MISG      29.95F                  
                   
$$
MOZ072>076-082>087-097>100-106>115-260200-
...SOUTH CENTRAL AND SOUTHEAST MISSOURI...
  
CITY           SKY/WX    TMP DP  RH WIND       PRES   REMARKS
CAPE GIRARDEAU FAIR      80  70  71 S6        30.02S                  
FARMINGTON     PTCLDY    80  71  74 S8        30.04S                  
POPLAR BLUFF   FAIR      82  69  64 S6        30.03S                  
WEST PLAINS    CLOUDY    80  68  66 S5        30.04F                  
                                       
$$